Cartersville, GA

3:59 PM EST on December 05, 2019 (GMT -0500)
Cartersville

Weather History for KVPC - November, 2019

Change the Weather History Date:

Friday, November 22, 2019

  Actual Average Record
Temperature  
Mean Temperature 56 °F 49 °F  
Max Temperature 66 °F 61 °F 73 °F (2010)
Min Temperature 46 °F 37 °F 14 °F (2008)
Degree Days  
Heating Degree Days 9 16  
Month to date heating degree days 348 278  
Since 1 July heating degree days 428 470  
Growing Degree Days 6 (Base 50)    
Moisture  
Dew Point 52 °F    
Average Humidity 80    
Maximum Humidity 93    
Minimum Humidity 63    
Precipitation  
Precipitation 0.04 in 0.16 in 3.48 in (1991)
Month to date precipitation 1.74 2.78  
Year to date precipitation 40.00 44.39  
Sea Level Pressure  
Sea Level Pressure 30.04 in    
Wind  
Wind Speed 0 mph ()    
Max Wind Speed 15 mph    
Max Gust Speed 19 mph    
Visibility 7.5 miles    
Events Rain    
T = Trace of Precipitation, MM = Missing Value Source: Averaged Metar Reports

Daily Weather History Graph

Daily Weather History Graph

Search for Another Location

Airport or City:

Astronomy

Nov. 22, 2019 Rise Set
Actual Time 7:18 AM EST 5:32 PM EST
Civil Twilight 6:51 AM EST 5:59 PM EST
Nautical Twilight 6:21 AM EST 6:29 PM EST
Astronomical Twilight 5:51 AM EST 6:59 PM EST
Moon 2:40 AM EST (11/22) 3:17 PM EST (11/22)
Length of Visible Light 11h 07m
Length of Day
10h 13m
Waning Crescent, 20% of the Moon is Illuminated
Nov 22
Waning Crescent
Nov 26
New
Dec 4
First Quarter
Dec 12
Full
Dec 18
Last Quarter

Hourly Weather History & Observations

Time (EST) Temp. Dew Point Humidity Pressure Visibility Wind Dir Wind Speed Gust Speed Precip Events Conditions
12:53 AM 52.0 °F 45.0 °F 77% 30.13 in 10.0 mi Calm Calm - N/A   Partly Cloudy
1:53 AM 50.0 °F 45.0 °F 83% 30.12 in 10.0 mi Calm Calm - N/A   Partly Cloudy
2:53 AM 48.0 °F 44.1 °F 86% 30.11 in 10.0 mi Calm Calm - N/A   Partly Cloudy
3:53 AM 48.0 °F 44.1 °F 86% 30.10 in 10.0 mi Calm Calm - N/A   Mostly Cloudy
4:53 AM 46.9 °F 43.0 °F 86% 30.11 in 10.0 mi Calm Calm - N/A   Clear
5:53 AM 55.9 °F 44.1 °F 64% 30.09 in 10.0 mi Calm Calm - N/A   Scattered Clouds
6:53 AM 55.0 °F 44.1 °F 67% 30.09 in 10.0 mi Variable 4.6 mph - N/A   Scattered Clouds
7:53 AM 55.0 °F 45.0 °F 69% 30.10 in 10.0 mi Calm Calm - N/A   Scattered Clouds
8:53 AM 54.0 °F 45.0 °F 72% 30.10 in 10.0 mi Calm Calm - N/A   Scattered Clouds
9:53 AM 55.9 °F 48.0 °F 75% 30.10 in 10.0 mi Calm Calm - N/A   Partly Cloudy
10:53 AM 61.0 °F 48.9 °F 64% 30.09 in 10.0 mi NNE 3.5 mph - N/A   Scattered Clouds
11:53 AM 63.0 °F 51.1 °F 65% 30.06 in 10.0 mi ENE 3.5 mph - N/A   Mostly Cloudy
12:53 PM 64.9 °F 52.0 °F 63% 30.02 in 10.0 mi Calm Calm - N/A   Overcast
1:53 PM 66.0 °F 54.0 °F 65% 30.00 in 10.0 mi Calm Calm - N/A   Overcast
2:53 PM 64.9 °F 55.0 °F 70% 29.99 in 10.0 mi ENE 3.5 mph - 0.00 in   Overcast
3:13 PM 64.0 °F 55.0 °F 73% 30.00 in 10.0 mi Calm Calm - N/A   Overcast
3:31 PM 64.0 °F 55.9 °F 75% 30.02 in 9.0 mi Calm Calm - N/A   Overcast
3:53 PM 63.0 °F 57.0 °F 81% 29.99 in 10.0 mi Calm Calm - N/A   Overcast
4:53 PM 64.0 °F 57.0 °F 78% 29.99 in 10.0 mi Calm Calm - 0.00 in   Overcast
5:53 PM 61.0 °F 57.9 °F 90% 30.00 in 7.0 mi Calm Calm - 0.01 in Rain Light Rain
6:53 PM 61.0 °F 57.9 °F 90% 30.00 in 4.0 mi Calm Calm - 0.03 in   Overcast
7:33 PM 60.1 °F 57.9 °F 93% 30.03 in 2.0 mi Calm Calm - N/A   Overcast
7:53 PM 60.1 °F 57.9 °F 93% 30.00 in 2.5 mi Calm Calm - N/A   Overcast
8:53 PM 61.0 °F 57.9 °F 90% 30.00 in 2.5 mi Calm Calm - N/A   Overcast
9:23 PM 60.1 °F 57.9 °F 93% 30.01 in 2.0 mi Calm Calm - N/A   Overcast
9:53 PM 60.1 °F 57.9 °F 93% 29.99 in 2.0 mi Calm Calm - N/A   Overcast
10:38 PM 60.1 °F 57.9 °F 93% 30.00 in 2.5 mi Calm Calm - N/A   Overcast
10:53 PM 60.1 °F 57.9 °F 93% 29.98 in 2.0 mi Calm Calm - N/A   Overcast
11:53 PM 60.1 °F 57.9 °F 93% 29.96 in 2.0 mi Calm Calm - N/A   Overcast